Vorticity
5 5 5 4 4 4 4 3 2 1 3 4 4 4 3 2 4 10 9 8 8 7 7 8 8 6 5 8 7 6 6 7 6 7 6 10 14 17 7 20 24 13 16 15 17 18 20
4 4 5 5 4 4 4 4 4 2 2 2 4 4 6 4 4 2 1 6 8 9 8 8 9 7 7 10 4 6 6 5 5 8 5 8 15 11 12 14 23 6 18 24 17 5 25
5 4 4 4 4 4 4 5 4 6 3 1 2 3 4 4 5 5 4 3 2 -0 3 5 9 9 7 7 5 7 4 4 5 8 7 6 14 15 9 14 18 17 8 12 12 7 17
5 4 4 4 4 4 4 4 4 4 6 5 1 1 4 4 4 5 4 4 6 3 3 3 4 3 9 9 9 8 5 5 5 5 7 5 8 16 14 10 15 24 6 13 10 12 21
4 4 4 4 4 5 5 6 5 5 5 7 7 4 1 3 6 4 5 5 5 4 5 5 6 3 6 5 9 9 8 5 5 4 4 5 3 16 11 13 11 11 25 8 8 16 12
4 4 4 4 5 5 5 6 6 5 5 5 6 7 5 3 2 4 6 5 6 7 7 6 5 8 4 4 5 7 9 7 6 6 3 4 4 6 19 12 13 7 19 24 4 5 17
4 4 5 5 5 6 6 6 7 7 6 5 5 6 8 7 4 2 4 4 6 7 4 7 5 8 7 4 5 6 6 8 9 6 5 3 5 5 10 14 12 14 12 16 27 9 10
5 6 6 6 7 8 7 6 6 6 6 6 6 6 6 7 7 5 3 3 4 5 10 6 3 6 8 5 5 5 6 6 9 7 6 5 5 4 5 16 17 11 6 15 14 21 18
6 6 6 6 7 5 6 5 4 4 3 5 5 6 7 7 7 7 6 5 4 3 7 6 7 16 3 6 3 5 4 5 6 7 8 7 5 6 3 7 13 15 13 5 8 13 14
4 2 -2 -1 1 1 1 -2 2 1 5 6 7 6 6 7 7 7 7 6 5 4 3 -3 3 7 4 4 6 4 6 4 4 4 6 10 9 5 6 4 8 14 15 9 16 19 9
-3 1 -4 4 9 8 3 3 10 8 5 3 3 9 6 5 6 6 5 7 6 6 1 4 6 -4 8 3 5 4 3 4 4 5 4 5 7 9 4 6 3 7 9 17 21 7 16
23 23 17 13 11 15 18 21 5 3 6 9 12 12 8 7 6 5 5 5 5 6 6 9 2 7 3 4 6 8 6 5 2 4 5 3 6 10 6 6 5 4 4 2 5 11 13
10 18 13 11 10 12 8 8 12 13 14 13 7 8 9 10 9 9 8 7 6 6 8 9 6 5 5 6 7 7 10 6 5 7 3 4 3 5 12 8 4 5 6 7 5 6 8
7 3 5 10 11 8 8 9 7 7 8 10 8 9 9 10 9 9 9 8 6 9 8 7 8 7 6 7 5 9 9 9 11 7 3 5 6 5 3 11 12 4 4 7 5 9 14
10 7 9 12 8 7 8 8 8 10 10 9 11 13 17 19 17 17 13 11 12 11 9 10 11 13 18 17 16 13 17 18 15 11 7 7 8 5 2 3 7 8 4 5 6 6 7
7 9 6 6 5 5 5 7 12 13 14 11 4 3 -2 2 1 0 2 6 9 9 10 11 10 3 -1 3 4 2 -1 2 2 21 8 13 10 4 7 2 4 8 14 1 6 3 2
8 6 8 7 8 10 10 10 8 3 0 -0 5 0 1 3 7 11 10 13 12 9 7 7 8 9 13 12 10 9 10 10 6 5 11 2 1 12 11 3 8 2 0 17 10 4 3
4 4 3 3 6 6 4 3 2 1 -0 5 1 7 7 13 23 25 18 20 21 18 15 14 18 18 17 16 15 12 12 14 11 7 8 3 1 7 7 12 4 5 4 1 3 15 12
9 8 7 7 5 3 2 -1 2 1 2 13 16 12 18 20 11 10 11 11 11 12 9 6 3 6 4 3 2 4 5 4 4 11 10 10 8 10 5 7 9 1 6 2 2 2 8
-1 -2 4 5 6 5 5 9 8 12 15 19 11 13 13 9 10 10 12 9 7 4 5 8 4 1 3 1 0 -2 0 1 1 4 4 2 3 5 12 7 4 1 8 3 4 6 1
-0 5 8 10 12 14 16 18 18 17 17 18 15 11 10 11 7 9 9 6 5 7 6 3 1 1 3 0 -1 1 2 4 -0 2 5 5 4 4 6 7 11 5 2 15 5 2 9
11 11 15 13 14 15 14 14 15 14 19 18 13 10 10 6 10 9 8 7 5 3 4 3 8 4 8 8 1 2 5 7 4 4 2 2 2 3 5 3 6 1 14 -0 12 8 -2
11 12 11 12 14 13 10 11 12 12 11 10 10 9 11 10 11 9 7 8 11 12 7 9 3 5 4 5 7 7 5 1 2 -0 5 7 8 5 -1 5 5 1 13 15 6 11 15
12 14 14 12 11 11 12 12 12 10 11 13 10 10 9 9 8 8 8 10 9 9 10 3 11 14 8 3 1 4 5 5 5 4 6 7 6 4 8 2 2 0 7 8 16 8 24
12 13 13 12 12 15 15 15 15 15 14 13 12 13 12 11 13 11 14 10 9 10 9 8 7 6 7 9 12 12 5 4 6 11 15 16 12 9 7 4 6 3 0 8 9 20 4
14 13 15 16 12 10 10 11 13 13 12 12 11 8 4 4 2 3 2 4 4 4 3 6 6 6 5 3 7 10 12 11 14 12 11 11 9 1 6 8 7 6 7 2 10 12 14
12 11 10 10 12 11 11 10 11 9 8 2 6 5 6 7 6 6 9 9 10 10 7 7 7 4 8 6 8 11 9 14 9 8 8 7 12 10 13 7 10 7 5 10 6 12 3
14 12 12 11 9 9 8 7 7 6 6 7 3 5 4 2 2 7 4 8 10 6 10 13 13 16 21 21 12 12 14 14 12 12 17 18 20 25 25 16 10 18 14 5 6 15 13
10 9 10 8 8 7 7 7 7 6 3 6 5 7 8 8 8 7 12 17 9 17 27 11 2 7 17 16 13 10 19 21 21 18 38 23 32 34 33 19 15 8 55 20 16 20 13
Height
5846 5845 5843 5841 5839 5838 5835 5833 5831 5828 5825 5823 5820 5818 5815 5812 5809 5806 5803 5800 5796 5793 5789 5785 5782 5778 5774 5770 5764 5758 5753 5748 5742 5735 5726 5718 5710 5703 5696 5690 5684 5680 5676 5673 5674 5673 5676
5844 5843 5841 5840 5838 5836 5834 5832 5829 5827 5825 5822 5819 5816 5814 5810 5808 5805 5802 5798 5794 5791 5787 5783 5779 5776 5771 5768 5762 5757 5752 5747 5740 5733 5725 5717 5708 5701 5694 5688 5683 5678 5673 5669 5670 5671 5672
5842 5840 5839 5837 5836 5833 5831 5829 5828 5826 5823 5821 5818 5815 5812 5809 5805 5802 5799 5796 5793 5789 5785 5781 5777 5773 5769 5765 5759 5754 5749 5744 5738 5732 5724 5717 5707 5699 5693 5687 5682 5677 5673 5670 5668 5668 5668
5838 5837 5836 5834 5832 5831 5829 5827 5825 5823 5821 5818 5816 5813 5809 5806 5803 5800 5796 5793 5790 5786 5783 5779 5775 5770 5767 5763 5758 5753 5747 5741 5735 5729 5722 5715 5707 5699 5692 5687 5682 5677 5672 5669 5668 5666 5665
5836 5835 5833 5831 5829 5827 5826 5824 5822 5819 5817 5815 5812 5809 5807 5803 5800 5797 5794 5790 5787 5783 5780 5776 5773 5769 5765 5761 5755 5751 5746 5740 5733 5727 5720 5713 5706 5699 5692 5686 5682 5677 5672 5668 5666 5665 5664
5832 5831 5830 5828 5826 5824 5822 5820 5818 5815 5813 5810 5808 5805 5802 5799 5797 5794 5790 5787 5783 5780 5776 5773 5769 5767 5762 5758 5753 5748 5743 5738 5732 5725 5719 5712 5705 5699 5693 5686 5682 5676 5672 5667 5665 5663 5661
5828 5827 5826 5824 5822 5820 5817 5815 5813 5811 5809 5806 5803 5801 5798 5795 5792 5789 5786 5783 5781 5778 5773 5769 5766 5762 5758 5754 5750 5746 5741 5736 5731 5724 5718 5712 5706 5699 5693 5687 5682 5677 5672 5668 5664 5662 5660
5824 5823 5821 5819 5817 5815 5813 5811 5808 5806 5804 5802 5798 5795 5793 5789 5786 5784 5782 5778 5776 5772 5769 5764 5761 5757 5754 5750 5746 5742 5738 5734 5727 5722 5717 5712 5706 5699 5692 5687 5682 5677 5673 5669 5665 5661 5660
5818 5817 5816 5814 5812 5810 5808 5806 5803 5800 5798 5796 5793 5790 5787 5784 5781 5778 5776 5774 5770 5767 5765 5761 5757 5753 5750 5747 5742 5738 5734 5729 5725 5719 5715 5709 5705 5698 5692 5686 5682 5677 5674 5669 5666 5662 5658
5813 5811 5809 5808 5806 5804 5802 5799 5796 5793 5792 5789 5786 5783 5780 5777 5775 5771 5768 5766 5763 5760 5758 5757 5752 5749 5745 5740 5738 5733 5729 5726 5722 5717 5712 5709 5703 5698 5692 5686 5682 5676 5672 5669 5665 5662 5659
5807 5805 5803 5801 5798 5795 5793 5791 5789 5786 5784 5782 5779 5776 5773 5770 5767 5764 5762 5759 5757 5754 5750 5749 5745 5743 5739 5736 5732 5729 5725 5721 5717 5713 5710 5705 5701 5696 5691 5686 5681 5678 5672 5668 5665 5661 5658
5799 5796 5794 5792 5790 5788 5785 5783 5781 5778 5775 5773 5770 5768 5766 5762 5759 5757 5754 5751 5749 5748 5743 5741 5737 5735 5733 5730 5727 5723 5720 5716 5712 5710 5706 5702 5697 5694 5689 5685 5680 5677 5673 5668 5664 5661 5657
5790 5787 5785 5783 5781 5779 5776 5774 5773 5770 5767 5765 5761 5759 5756 5754 5752 5748 5745 5743 5740 5739 5737 5733 5729 5727 5725 5723 5719 5716 5714 5711 5706 5703 5703 5700 5695 5691 5687 5683 5679 5674 5671 5667 5664 5661 5656
5783 5780 5778 5776 5773 5771 5768 5766 5764 5760 5758 5757 5752 5750 5747 5745 5742 5739 5737 5734 5729 5731 5726 5722 5720 5718 5716 5714 5711 5708 5705 5704 5701 5697 5694 5694 5693 5688 5684 5681 5677 5673 5668 5665 5658 5656 5655
5776 5774 5772 5768 5765 5763 5760 5758 5755 5753 5750 5747 5743 5741 5739 5736 5732 5729 5727 5723 5722 5719 5716 5713 5712 5710 5708 5706 5703 5699 5698 5698 5694 5692 5688 5686 5687 5684 5681 5678 5674 5670 5666 5663 5659 5655 5651
5769 5766 5763 5760 5757 5754 5751 5749 5747 5743 5741 5739 5736 5733 5730 5727 5725 5721 5718 5715 5711 5709 5707 5704 5702 5701 5699 5697 5695 5692 5691 5691 5687 5685 5680 5680 5678 5680 5677 5674 5671 5667 5664 5659 5655 5651 5646
5760 5757 5754 5751 5748 5745 5743 5740 5738 5736 5732 5730 5727 5723 5721 5718 5714 5711 5708 5705 5702 5698 5696 5695 5693 5691 5690 5688 5687 5685 5683 5682 5678 5676 5674 5672 5672 5675 5672 5669 5666 5664 5660 5656 5653 5649 5645
5753 5748 5745 5741 5738 5735 5732 5729 5728 5726 5722 5719 5715 5712 5708 5704 5702 5699 5697 5694 5691 5688 5686 5685 5684 5682 5681 5679 5678 5676 5675 5672 5670 5668 5666 5665 5659 5664 5666 5663 5661 5658 5655 5653 5648 5647 5642
5742 5739 5735 5732 5729 5725 5722 5719 5716 5713 5710 5706 5702 5699 5697 5693 5690 5688 5686 5684 5682 5680 5679 5677 5675 5673 5673 5672 5670 5668 5666 5664 5663 5661 5659 5657 5653 5652 5657 5658 5655 5652 5650 5647 5644 5642 5641
5730 5727 5723 5719 5715 5712 5708 5705 5701 5698 5696 5694 5690 5687 5685 5683 5680 5679 5676 5674 5671 5670 5668 5667 5666 5664 5664 5663 5661 5660 5658 5657 5655 5653 5650 5646 5646 5646 5644 5648 5645 5643 5643 5641 5637 5636 5634
5719 5714 5710 5706 5702 5698 5694 5691 5688 5685 5683 5681 5678 5675 5674 5671 5669 5667 5666 5665 5663 5661 5657 5654 5653 5652 5651 5650 5650 5647 5647 5647 5646 5643 5640 5637 5636 5635 5636 5637 5634 5633 5634 5635 5630 5632 5624
5706 5701 5697 5694 5689 5685 5682 5679 5677 5674 5670 5668 5665 5663 5662 5660 5658 5655 5653 5650 5648 5647 5646 5644 5641 5639 5635 5634 5632 5633 5634 5634 5636 5633 5629 5625 5624 5622 5623 5626 5623 5619 5621 5627 5626 5623 5619
5692 5688 5684 5680 5676 5673 5670 5667 5664 5662 5660 5657 5655 5652 5650 5648 5645 5643 5640 5637 5634 5632 5630 5627 5624 5623 5620 5617 5616 5617 5617 5619 5620 5620 5617 5613 5612 5608 5607 5610 5609 5607 5614 5619 5616 5614 5614
5682 5677 5672 5667 5663 5659 5655 5653 5650 5648 5647 5644 5642 5640 5638 5637 5634 5630 5628 5624 5620 5616 5616 5613 5606 5603 5602 5600 5600 5600 5600 5601 5600 5605 5601 5600 5598 5591 5591 5594 5586 5599 5603 5605 5605 5607 5606
5669 5665 5661 5657 5653 5650 5646 5642 5638 5636 5633 5631 5628 5626 5624 5623 5621 5616 5613 5608 5605 5602 5599 5595 5589 5584 5581 5580 5581 5581 5584 5581 5583 5583 5583 5581 5577 5571 5570 5574 5576 5579 5589 5592 5590 5598 5599
5656 5652 5648 5644 5640 5637 5634 5630 5626 5623 5620 5618 5614 5612 5610 5610 5608 5603 5597 5590 5588 5584 5581 5574 5570 5563 5561 5560 5558 5556 5556 5558 5558 5558 5561 5560 5557 5551 5554 5551 5554 5565 5573 5576 5580 5581 5591
5644 5639 5635 5631 5628 5624 5621 5618 5615 5611 5608 5606 5601 5598 5596 5595 5593 5587 5580 5575 5570 5560 5558 5551 5547 5544 5539 5535 5533 5529 5531 5524 5525 5529 5533 5530 5529 5526 5530 5526 5533 5548 5555 5554 5562 5570 5567
5633 5628 5624 5620 5616 5612 5610 5607 5603 5599 5594 5591 5588 5582 5579 5578 5576 5570 5564 5559 5547 5542 5535 5526 5523 5523 5516 5510 5505 5503 5500 5495 5493 5495 5498 5498 5500 5504 5506 5508 5513 5523 5531 5535 5543 5550 5552
5622 5618 5613 5609 5605 5601 5598 5594 5590 5585 5580 5573 5572 5565 5559 5556 5558 5550 5549 5536 5529 5519 5499 5500 5497 5498 5489 5482 5483 5475 5471 5465 5465 5465 5476 5465 5474 5476 5480 5486 5496 5498 5503 5512 5520 5529 5535